Regional Weather Roundup
Issued by NWS Newport/Morehead, NC

Current Version | Previous Version | Graphics & Text | Print | Product List | Glossary On
Versions: 1 2 3 4 5 6 7 8 9 10 11 12 13 14 15 16 17 18 19 20 21 22 23 24 25 26 27 28 29 30 31 32 33 34 35 36 37 38 39 40 41 42 43 44 45 46 47 48 49 50
000 ASUS42 KMHX 061210 RWRMHX WEATHER ROUNDUP FOR EASTERN NORTH CAROLINA NATIONAL WEATHER SERVICE NEWPORT/MOREHEAD CITY NC 800 AM EDT FRI MAY 06 2016 NOTE: "FAIR" INDICATES FEW OR NO CLOUDS BELOW 12,000 FEET WITH NO SIGNIFICANT WEATHER AND/OR OBSTRUCTIONS TO VISIBILITY NCZ015>017-031-032-045>047-102-103-061300- NORTH COAST CITY SKY/WX TMP DP RH WIND PRES REMARKS EDENTON RAIN 54 54 100 CALM 29.67S ELIZABETH CITY CLOUDY 53 49 86 NW3 29.67R KITTY HAWK DRIZZLE 53 52 95 CALM 29.66R MANTEO PTSUNNY 54 52 90 E3 29.67S $$ NCZ045>047-081-094-103-104-061300- CENTRAL COAST CITY SKY/WX TMP DP RH WIND PRES REMARKS FRISCO PTSUNNY 58 51 78 SE5 29.67R SWANQUARTER NOT AVBL $$ NCZ095-097-098-100-101-061300- SOUTHERN COAST CITY SKY/WX TMP DP RH WIND PRES REMARKS BEAUFORT CLOUDY 51 48 89 MISG 29.70R CEDAR ISLAND NOT AVBL JACKSONVILLE CLOUDY 51 48 89 W7 29.70R PINEY ISLAND NOT AVBL WILMINGTON CLOUDY 51 47 86 W12 29.73R $$ NCZ011>013-027>030-043-044-078>080-089-090>093-098-061300- COASTAL PLAIN CITY SKY/WX TMP DP RH WIND PRES REMARKS AHOSKIE LGT RAIN 50 49 96 CALM 29.68R CLINTON CLOUDY 51 51 98 W5 29.72R ELIZABETHTOWN LGT RAIN 51 49 92 W6 29.73R GOLDSBORO CLOUDY 53 53 100 W7 29.67R GREENVILLE LGT RAIN 52 52 100 CALM 29.70R HAVELOCK CLOUDY 51 48 89 W7 29.70R KENANSVILLE CLOUDY 51 50 95 CALM 29.71R KINSTON CLOUDY 54 52 94 W3 29.69R NEW BERN CLOUDY 52 49 89 W8 29.69R RICHLANDS CLOUDY 51 50 96 W7 29.71R ROCKY MOUNT LGT RAIN 52 51 97 N7 29.69R WASHINGTON CLOUDY 52 50 93 S3 29.67R WHITEVILLE NOT AVBL $$ AMZ130-135-150-152-154-156-158-170-250-252-270-ANZ085-086-088-633-658-670-061300- MARINE OBSERVATIONS STATION/POSITION TIME TEMP WIND PRES WAVE SWELL AIR SEA DIR/SP/G HT/PER HT/PER (UTC) (F) (DEG/KT/KT) (MB) (FT/S) (FT/S) CHESAPEAKE LIGHT NOT AVBL 64 E VA BEACH NOT AVBL DUCK NOT AVBL 2 E DUCK NOT AVBL OREGON INLET NOT AVBL 13E OREGON INLT NOT AVBL HATTERAS CG NOT AVBL DIAMOND BUOY NOT AVBL CAPE LOOKOUT NOT AVBL BEAUFORT LAB NOT AVBL 30 SE NEW RVR IN NOT AVBL 27 SE WRIGHTSVLE NOT AVBL 5 SE WRIGHTSVLE NOT AVBL 225 S CAPE HAT NOT AVBL 41 SE CHARLESTON NOT AVBL $$

USA.gov is the U.S. government's official web portal to all federal, state and local government web resources and services.